This demonstration page uses our WeatherBlox Daily Observations layout. Learn more.

Left ArrowRight Arrow

39.29038, -76.61219

Hourly Observations for November 13, 2016

Temp ( °F °C ) Dew Point ( °F °C ) Humidity (%) Winds ( mph kmh ) Pressure ( in mb ) Visibility ( mi km ) Precip ( " mm )
12:54 am 00:54 undefined 41 5 24 -4.4 51 51 undefined N/A 30.27 1025 N/A 0.00 0.00
1:54 am 01:54 undefined 40 4.4 25 -3.9 55 55 undefined N/A 30.27 1025 N/A 0.00 0.00
2:54 am 02:54 undefined 39 3.9 25 -3.9 57 57 undefined N/A 30.25 1025 N/A 0.00 0.00
3:54 am 03:54 undefined 39 3.9 25 -3.9 57 57 undefined N/A 30.25 1024 N/A 0.00 0.00
4:54 am 04:54 undefined 38 3.3 26 -3.3 62 62 undefined N/A 30.25 1024 N/A 0.00 0.00
5:54 am 05:54 undefined 39 3.9 25 -3.9 57 57 undefined N/A 30.25 1024 N/A 0.00 0.00
6:54 am 06:54 undefined 38 3.3 25 -3.9 60 60 undefined N/A 30.25 1025 N/A 0.00 0.00
7:54 am 07:54 undefined 41 5 25 -3.9 53 53 undefined N/A 30.26 1025 N/A 0.00 0.00
8:54 am 08:54 undefined 46 7.8 24 -4.4 42 42 undefined N/A 30.27 1025 N/A 0.00 0.00
9:54 am 09:54 undefined 50 10 22 -5.6 33 33 undefined N/A 30.27 1025 N/A 0.00 0.00
10:54 am 10:54 undefined 53 11.7 20 -6.7 27 27 undefined N/A 30.25 1024 N/A 0.00 0.00
11:54 am 11:54 undefined 57 13.9 19 -7.2 23 23 undefined N/A 30.21 1023 N/A 0.00 0.00
12:54 pm 12:54 undefined 61 16.1 18 -7.8 19 19 undefined N/A 30.18 1022 N/A 0.00 0.00
1:54 pm 13:54 undefined 63 17.2 17 -8.3 17 17 undefined N/A 30.16 1021 N/A 0.00 0.00
2:54 pm 14:54 undefined 62 16.7 16 -8.9 17 17 undefined N/A 30.14 1021 N/A 0.00 0.00
3:54 pm 15:54 undefined 62 16.7 16 -8.9 17 17 undefined N/A 30.13 1020 N/A 0.00 0.00
4:54 pm 16:54 undefined 59 15 16 -8.9 18 18 undefined N/A 30.13 1020 N/A 0.00 0.00
5:54 pm 17:54 undefined 56 13.3 18 -7.8 22 22 undefined N/A 30.13 1020 N/A 0.00 0.00
6:54 pm 18:54 undefined 54 12.2 19 -7.2 25 25 undefined N/A 30.13 1020 N/A 0.00 0.00
7:54 pm 19:54 undefined 50 10 21 -6.1 32 32 undefined N/A 30.14 1021 N/A 0.00 0.00
8:54 pm 20:54 undefined 49 9.4 22 -5.6 35 35 undefined N/A 30.13 1020 N/A 0.00 0.00
9:54 pm 21:54 undefined 48 8.9 23 -5 37 37 undefined N/A 30.13 1020 N/A 0.00 0.00
10:54 pm 22:54 undefined 47 8.3 25 -3.9 42 42 undefined N/A 30.13 1020 N/A 0.00 0.00
11:54 pm 23:54 undefined 46 7.8 26 -3.3 46 46 undefined N/A 30.13 1020 N/A 0.00 0.00

Powered by AerisWeather